カタログに戻る

STARLINK-1362

運用中通信VLEO
NORAD 45538·PAYLOAD·🇺🇸 United States

打ち上げ Apr 22, 2020 から Cape Canaveral Space Force Station

Loading…

次のパス (今後24時間)

TLE

最新Source: CelesTrak SupGP

元期: Sep 15, 2026, 02:37 UTC

1 45538C 20025H   26258.10951389  .00046892  00000+0  95359-3 0  2583
2 45538  53.1517 291.0041 0001958  78.0615 229.1418 15.45682287    12

AllMySatでSTARLINK-1362をリアルタイム追跡

Download on the App Store